,,Stat5,,Stat1,,Stat2,,Stat3,,Stat4,,Wind1,,Wind1,
time,status,PA1M_AVG,status,PR1M_SUM,status,RH1M_AVG,status,SR1M_AVG,status,TA1M_AVG,status,W1dAve1m,status,W1sAve1m,
2000-06-02, 00:00:00,VALID,916.628,VALID,0,VALID,98.3205,VALID,-0.0849042,VALID,19.0038,VALID,303,VALID,0,
2000-06-02, 00:01:00,VALID,916.642,VALID,0,VALID,98.3701,VALID,-0.0679233,VALID,18.9937,VALID,276,VALID,0,
2000-06-02, 00:02:00,VALID,916.635,VALID,0,VALID,98.4387,VALID,-0.0339617,VALID,18.9999,VALID,263,VALID,0,
2000-06-02, 00:03:00,VALID,916.636,VALID,0,VALID,98.4947,VALID,-0.0679233,VALID,19.0064,VALID,258,VALID,0,
2000-06-02, 00:04:00,VALID,916.634,VALID,0,VALID,98.5354,VALID,-0.0509425,VALID,19.0188,VALID,258,VALID,0,
2000-06-02, 00:05:00,VALID,916.625,VALID,0,VALID,98.5646,VALID,-0.0849042,VALID,19.0186,VALID,258,VALID,0,
2000-06-02, 00:06:00,VALID,916.616,VALID,0,VALID,98.515,VALID,-0.0339617,VALID,19.0158,VALID,257,VALID,0,
2000-06-02, 00:07:00,VALID,916.613,VALID,0,VALID,98.5951,VALID,-0.0169808,VALID,19.0218,VALID,249,VALID,0,
2000-06-02, 00:08:00,VALID,916.601,VALID,0,VALID,98.6244,VALID,-0.0509425,VALID,19.0548,VALID,198,VALID,0,
2000-06-02, 00:09:00,VALID,916.592,VALID,0,VALID,98.5722,VALID,-0.0679233,VALID,19.0416,VALID,189,VALID,0,
2000-06-02, 00:10:00,VALID,916.576,VALID,0,VALID,98.5697,VALID,-0.0679233,VALID,19.0518,VALID,156,VALID,0,
2000-06-02, 00:11:00,VALID,916.582,VALID,0,VALID,98.5824,VALID,-0.0849042,VALID,19.0647,VALID,109,VALID,0.00740132,
2000-06-02, 00:12:00,VALID,916.62,VALID,0,VALID,98.5951,VALID,-0.0509425,VALID,19.0807,VALID,104,VALID,0.0238487,
2000-06-02, 00:13:00,VALID,916.62,VALID,0,VALID,98.6002,VALID,-0.0509425,VALID,19.0839,VALID,104,VALID,0,
2000-06-02, 00:14:00,VALID,916.618,VALID,0,VALID,98.5672,VALID,-0.101885,VALID,19.0677,VALID,104,VALID,0,
2000-06-02, 00:15:00,VALID,916.635,VALID,0,VALID,98.5125,VALID,-0.0679233,VALID,19.0282,VALID,102,VALID,0,
2000-06-02, 00:16:00,VALID,916.633,VALID,0,VALID,98.4998,VALID,-0.0509425,VALID,19.0193,VALID,103,VALID,0,
2000-06-02, 00:17:00,VALID,916.623,VALID,0,VALID,98.487,VALID,-0.0339617,VALID,19.0031,VALID,106,VALID,0,
2000-06-02, 00:18:00,VALID,916.615,VALID,0,VALID,98.5392,VALID,-0.0509425,VALID,19.0098,VALID,106,VALID,0,
2000-06-02, 00:19:00,VALID,916.612,VALID,0,VALID,98.5557,VALID,-0.0509425,VALID,18.9997,VALID,106,VALID,0,
2000-06-02, 00:20:00,VALID,916.589,VALID,0,VALID,98.5659,VALID,-0.101885,VALID,19.0064,VALID,126,VALID,0,
2000-06-02, 00:21:00,VALID,916.574,VALID,0,VALID,98.4514,VALID,-0.0849042,VALID,18.9872,VALID,156,VALID,0,
2000-06-02, 00:22:00,VALID,916.559,VALID,0,VALID,98.4006,VALID,-0.101885,VALID,18.9519,VALID,158,VALID,0,
2000-06-02, 00:23:00,VALID,916.538,VALID,0,VALID,98.4209,VALID,-0.101885,VALID,18.9457,VALID,173,VALID,0,
2000-06-02, 00:24:00,VALID,916.519,VALID,0,VALID,98.4514,VALID,-0.0339617,VALID,18.9157,VALID,179,VALID,0,
2000-06-02, 00:25:00,VALID,916.492,VALID,0,VALID,98.487,VALID,0,VALID,18.909,VALID,181,VALID,0,
2000-06-02, 00:26:00,VALID,916.479,VALID,0,VALID,98.5481,VALID,0,VALID,18.899,VALID,172,VALID,0,
2000-06-02, 00:27:00,VALID,916.463,VALID,0,VALID,98.5544,VALID,0,VALID,18.8827,VALID,170,VALID,0.00287829,
2000-06-02, 00:28:00,VALID,916.433,VALID,0,VALID,98.5977,VALID,0,VALID,18.8732,VALID,171,VALID,0.00292969,
2000-06-02, 00:29:00,VALID,916.415,VALID,0,VALID,98.6346,VALID,0.0169808,VALID,18.8663,VALID,176,VALID,0,
2000-06-02, 00:30:00,VALID,916.389,VALID,0,VALID,98.6752,VALID,0,VALID,18.8695,VALID,178,VALID,0,
2000-06-02, 00:31:00,VALID,916.354,VALID,0,VALID,98.7477,VALID,0,VALID,18.8797,VALID,178,VALID,0,
2000-06-02, 00:32:00,VALID,916.322,VALID,0,VALID,98.8189,VALID,0,VALID,18.905,VALID,178,VALID,0,
2000-06-02, 00:33:00,VALID,916.294,VALID,0,VALID,98.8291,VALID,0.0169808,VALID,18.9246,VALID,180,VALID,0,
2000-06-02, 00:34:00,VALID,916.267,VALID,0,VALID,98.8367,VALID,0,VALID,18.9311,VALID,193,VALID,0,
2000-06-02, 00:35:00,VALID,916.244,VALID,0,VALID,98.8584,VALID,0.0169808,VALID,18.954,VALID,221,VALID,0,
2000-06-02, 00:36:00,VALID,916.223,VALID,0,VALID,98.8329,VALID,0,VALID,18.9507,VALID,216,VALID,0,
2000-06-02, 00:37:00,VALID,916.203,VALID,0,VALID,98.7808,VALID,0,VALID,18.9311,VALID,204,VALID,0,
2000-06-02, 00:38:00,VALID,916.193,VALID,0,VALID,98.7922,VALID,-0.0169808,VALID,18.9184,VALID,198,VALID,0,
2000-06-02, 00:39:00,VALID,916.19,VALID,0,VALID,98.8075,VALID,-0.0169808,VALID,18.9184,VALID,187,VALID,0.000822368,
2000-06-02, 00:40:00,VALID,916.196,VALID,0,VALID,98.8456,VALID,-0.0169808,VALID,18.9346,VALID,187,VALID,0,
2000-06-02, 00:41:00,VALID,916.19,VALID,0,VALID,98.8533,VALID,0,VALID,18.9443,VALID,197,VALID,0.00117188,
2000-06-02, 00:42:00,VALID,916.192,VALID,0,VALID,98.8469,VALID,0,VALID,18.9376,VALID,247,VALID,0,
2000-06-02, 00:43:00,VALID,916.177,VALID,0,VALID,98.8393,VALID,-0.0169808,VALID,18.9413,VALID,222,VALID,0,
2000-06-02, 00:44:00,VALID,916.164,VALID,0,VALID,98.8049,VALID,0,VALID,18.9244,VALID,196,VALID,0.000976563,
2000-06-02, 00:45:00,VALID,916.141,VALID,0,VALID,98.7655,VALID,-0.0169808,VALID,18.9288,VALID,191,VALID,0,
2000-06-02, 00:46:00,VALID,916.125,VALID,0,VALID,98.8037,VALID,-0.0169808,VALID,18.8923,VALID,193,VALID,0,
2000-06-02, 00:47:00,VALID,916.103,VALID,0,VALID,98.8711,VALID,-0.0169808,VALID,18.8889,VALID,196,VALID,0.474095,
2000-06-02, 00:48:00,VALID,916.068,VALID,0,VALID,98.9079,VALID,0,VALID,18.8926,VALID,179,VALID,0.467773,
2000-06-02, 00:49:00,VALID,916.05,VALID,0,VALID,98.8787,VALID,-0.0169808,VALID,18.8732,VALID,166,VALID,0.407227,
2000-06-02, 00:50:00,VALID,916.044,VALID,0,VALID,98.8901,VALID,0,VALID,18.86,VALID,191,VALID,0.259014,
2000-06-02, 00:51:00,VALID,916.026,VALID,0,VALID,98.9397,VALID,0,VALID,18.8536,VALID,192,VALID,0,
2000-06-02, 00:52:00,VALID,916.013,VALID,0,VALID,98.9842,VALID,-0.0169808,VALID,18.8499,VALID,209,VALID,0.0216797,
2000-06-02, 00:53:00,VALID,915.994,VALID,0,VALID,99.0097,VALID,0,VALID,18.8806,VALID,284,VALID,0,
2000-06-02, 00:54:00,VALID,915.979,VALID,0,VALID,99.0097,VALID,0,VALID,18.8635,VALID,319,VALID,0,
2000-06-02, 00:55:00,VALID,915.967,VALID,0,VALID,99.0237,VALID,-0.0169808,VALID,18.8637,VALID,298,VALID,0,
2000-06-02, 00:56:00,VALID,915.949,VALID,0,VALID,99.0415,VALID,0,VALID,18.8667,VALID,252,VALID,0,
2000-06-02, 00:57:00,VALID,915.935,VALID,0,VALID,99.044,VALID,0,VALID,18.8536,VALID,237,VALID,0,
2000-06-02, 00:58:00,VALID,915.906,VALID,0,VALID,99.058,VALID,0,VALID,18.8568,VALID,229,VALID,0,
2000-06-02, 00:59:00,VALID,915.894,VALID,0,VALID,99.1178,VALID,0,VALID,18.8725,VALID,232,VALID,0,
2000-06-02, 01:00:00,VALID,915.88,VALID,0,VALID,99.1292,VALID,0,VALID,18.8898,VALID,236,VALID,0,
2000-06-02, 01:01:00,VALID,915.872,VALID,0,VALID,99.1419,VALID,0,VALID,18.8896,VALID,248,VALID,0,
2000-06-02, 01:02:00,VALID,915.859,VALID,0,VALID,99.1394,VALID,0,VALID,18.8896,VALID,271,VALID,0.178686,
2000-06-02, 01:03:00,VALID,915.85,VALID,0,VALID,99.1483,VALID,0,VALID,18.8797,VALID,262,VALID,0.289474,
2000-06-02, 01:04:00,VALID,915.829,VALID,0,VALID,99.175,VALID,0,VALID,18.8896,VALID,244,VALID,0.317773,
2000-06-02, 01:05:00,VALID,915.819,VALID,0,VALID,99.175,VALID,0,VALID,18.8963,VALID,234,VALID,0.294141,
2000-06-02, 01:06:00,VALID,915.807,VALID,0,VALID,99.1902,VALID,-0.0169808,VALID,18.8829,VALID,231,VALID,0.145633,
2000-06-02, 01:07:00,VALID,915.795,VALID,0,VALID,99.1979,VALID,0,VALID,18.8861,VALID,229,VALID,0,
2000-06-02, 01:08:00,VALID,915.798,VALID,0,VALID,99.1877,VALID,0,VALID,18.8767,VALID,219,VALID,0.325,
2000-06-02, 01:09:00,VALID,915.795,VALID,0,VALID,99.189,VALID,0,VALID,18.87,VALID,219,VALID,0.332617,
2000-06-02, 01:10:00,VALID,915.806,VALID,0,VALID,99.1864,VALID,-0.0169808,VALID,18.8573,VALID,218,VALID,0,
2000-06-02, 01:11:00,VALID,915.79,VALID,0,VALID,99.1902,VALID,-0.0169808,VALID,18.8543,VALID,201,VALID,0.551604,
2000-06-02, 01:12:00,VALID,915.782,VALID,0,VALID,99.2017,VALID,0,VALID,18.8342,VALID,194,VALID,0.698047,
2000-06-02, 01:13:00,VALID,915.763,VALID,0,VALID,99.2386,VALID,0,VALID,18.8374,VALID,199,VALID,0.5625,
2000-06-02, 01:14:00,VALID,915.754,VALID,0,VALID,99.2678,VALID,0,VALID,18.8476,VALID,214,VALID,0.347957,
2000-06-02, 01:15:00,VALID,915.731,VALID,0,VALID,99.2564,VALID,-0.0169808,VALID,18.8379,VALID,229,VALID,0.363898,
2000-06-02, 01:16:00,VALID,915.731,VALID,0,VALID,99.2551,VALID,0,VALID,18.8245,VALID,229,VALID,0.4625,
2000-06-02, 01:17:00,VALID,915.71,VALID,0,VALID,99.2551,VALID,0,VALID,18.8116,VALID,199,VALID,0.510352,
2000-06-02, 01:18:00,VALID,915.694,VALID,0,VALID,99.2729,VALID,0,VALID,18.8051,VALID,191,VALID,0.41867,
2000-06-02, 01:19:00,VALID,915.681,VALID,0,VALID,99.2589,VALID,-0.0509425,VALID,18.8058,VALID,159,VALID,0.534745,
2000-06-02, 01:20:00,VALID,915.675,VALID,0,VALID,99.2627,VALID,-0.0509425,VALID,18.8026,VALID,177,VALID,0.190625,
2000-06-02, 01:21:00,VALID,915.685,VALID,0,VALID,99.2475,VALID,0,VALID,18.8093,VALID,185,VALID,0.0117188,
2000-06-02, 01:22:00,VALID,915.687,VALID,0,VALID,99.2093,VALID,-0.0339617,VALID,18.7832,VALID,194,VALID,0.508413,
2000-06-02, 01:23:00,VALID,915.679,VALID,0,VALID,99.2004,VALID,-0.0169808,VALID,18.7664,VALID,208,VALID,0.246094,
2000-06-02, 01:24:00,VALID,915.692,VALID,0,VALID,99.2169,VALID,-0.0339617,VALID,18.7962,VALID,188,VALID,0.0861328,
2000-06-02, 01:25:00,VALID,915.696,VALID,0,VALID,99.2017,VALID,-0.0679233,VALID,18.8058,VALID,217,VALID,0,
2000-06-02, 01:26:00,VALID,915.7,VALID,0,VALID,99.1864,VALID,-0.0339617,VALID,18.8056,VALID,222,VALID,0,
2000-06-02, 01:27:00,VALID,915.685,VALID,0,VALID,99.1457,VALID,-0.0679233,VALID,18.8091,VALID,221,VALID,0,
2000-06-02, 01:28:00,VALID,915.687,VALID,0,VALID,99.1279,VALID,-0.0849042,VALID,18.8026,VALID,204,VALID,0,
2000-06-02, 01:29:00,VALID,915.671,VALID,0,VALID,99.0961,VALID,-0.0509425,VALID,18.8188,VALID,177,VALID,0,
2000-06-02, 01:30:00,VALID,915.668,VALID,0,VALID,99.1241,VALID,-0.0679233,VALID,18.8314,VALID,147,VALID,0,
2000-06-02, 01:31:00,VALID,915.659,VALID,0,VALID,99.1496,VALID,-0.0679233,VALID,18.8672,VALID,132,VALID,0,
2000-06-02, 01:32:00,VALID,915.633,VALID,0,VALID,99.0618,VALID,-0.101885,VALID,18.8642,VALID,150,VALID,0,
2000-06-02, 01:33:00,VALID,915.631,VALID,0,VALID,99.0338,VALID,-0.0849042,VALID,18.8744,VALID,150,VALID,0,
2000-06-02, 01:34:00,VALID,915.648,VALID,0,VALID,99.0338,VALID,-0.101885,VALID,18.8709,VALID,150,VALID,0,
2000-06-02, 01:35:00,VALID,915.638,VALID,0,VALID,99.0135,VALID,-0.101885,VALID,18.8838,VALID,150,VALID,0,
2000-06-02, 01:36:00,VALID,915.636,VALID,0,VALID,99.0008,VALID,-0.101885,VALID,18.8836,VALID,150,VALID,0,
2000-06-02, 01:37:00,VALID,915.631,VALID,0,VALID,99.0338,VALID,-0.0679233,VALID,18.9025,VALID,150,VALID,0,
2000-06-02, 01:38:00,VALID,915.612,VALID,0,VALID,99.0504,VALID,-0.0679233,VALID,18.9224,VALID,150,VALID,0,
2000-06-02, 01:39:00,VALID,915.609,VALID,0,VALID,99.0351,VALID,-0.101885,VALID,18.9455,VALID,150,VALID,0,
2000-06-02, 01:40:00,VALID,915.597,VALID,0,VALID,99.0198,VALID,-0.0679233,VALID,18.9417,VALID,150,VALID,0,
2000-06-02, 01:41:00,VALID,915.575,VALID,0,VALID,99.002,VALID,-0.0509425,VALID,18.9413,VALID,147,VALID,0,
2000-06-02, 01:42:00,VALID,915.565,VALID,0,VALID,98.997,VALID,-0.0339617,VALID,18.9445,VALID,144,VALID,0,
2000-06-02, 01:43:00,VALID,915.539,VALID,0,VALID,98.9715,VALID,-0.0169808,VALID,18.9482,VALID,136,VALID,0,
2000-06-02, 01:44:00,VALID,915.539,VALID,0,VALID,98.9258,VALID,-0.0849042,VALID,18.9383,VALID,136,VALID,0,
2000-06-02, 01:45:00,VALID,915.512,VALID,0,VALID,98.8291,VALID,-0.0849042,VALID,18.9124,VALID,148,VALID,0,
2000-06-02, 01:46:00,VALID,915.497,VALID,0,VALID,98.707,VALID,-0.0679233,VALID,18.8771,VALID,173,VALID,0,
2000-06-02, 01:47:00,VALID,915.482,VALID,0,VALID,98.6676,VALID,-0.0849042,VALID,18.8377,VALID,187,VALID,0,
2000-06-02, 01:48:00,VALID,915.471,VALID,0,VALID,98.7083,VALID,-0.0679233,VALID,18.8151,VALID,206,VALID,0,
2000-06-02, 01:49:00,VALID,915.463,VALID,0,VALID,98.7337,VALID,-0.0679233,VALID,18.8028,VALID,199,VALID,0,
2000-06-02, 01:50:00,VALID,915.446,VALID,0,VALID,98.7401,VALID,-0.101885,VALID,18.7805,VALID,180,VALID,0.188502,
2000-06-02, 01:51:00,VALID,915.424,VALID,0,VALID,98.7859,VALID,-0.101885,VALID,18.7604,VALID,166,VALID,0.671669,
2000-06-02, 01:52:00,VALID,915.403,VALID,0,VALID,98.8444,VALID,-0.0849042,VALID,18.7673,VALID,154,VALID,0.898047,
2000-06-02, 01:53:00,VALID,915.384,VALID,0,VALID,98.8889,VALID,-0.0849042,VALID,18.7477,VALID,154,VALID,0.898828,
2000-06-02, 01:54:00,VALID,915.353,VALID,0,VALID,98.9372,VALID,0,VALID,18.747,VALID,160,VALID,0.656851,
2000-06-02, 01:55:00,VALID,915.324,VALID,0,VALID,98.9563,VALID,0.0169808,VALID,18.7403,VALID,188,VALID,0.761924,
2000-06-02, 01:56:00,VALID,915.294,VALID,0,VALID,98.9868,VALID,0.0169808,VALID,18.7204,VALID,191,VALID,0.672656,
2000-06-02, 01:57:00,VALID,915.264,VALID,0,VALID,99.0338,VALID,0.0169808,VALID,18.711,VALID,203,VALID,0.571875,
2000-06-02, 01:58:00,VALID,915.227,VALID,0,VALID,99.0822,VALID,0.0169808,VALID,18.7142,VALID,210,VALID,0.449519,
2000-06-02, 01:59:00,VALID,915.215,VALID,0,VALID,99.0898,VALID,0.0169808,VALID,18.6981,VALID,184,VALID,0.512541,
2000-06-02, 02:00:00,VALID,915.184,VALID,0,VALID,99.1267,VALID,0.0509425,VALID,18.6911,VALID,193,VALID,0.229492,
2000-06-02, 02:01:00,VALID,915.161,VALID,0,VALID,99.1508,VALID,0.0679233,VALID,18.6909,VALID,196,VALID,0.654492,
2000-06-02, 02:02:00,VALID,915.138,VALID,0,VALID,99.1635,VALID,0.0339617,VALID,18.6886,VALID,200,VALID,0.636819,
2000-06-02, 02:03:00,VALID,915.101,VALID,0,VALID,99.1941,VALID,0.0509425,VALID,18.675,VALID,200,VALID,0.768298,
2000-06-02, 02:04:00,VALID,915.085,VALID,0,VALID,99.2131,VALID,0.0169808,VALID,18.6787,VALID,210,VALID,0.664453,
2000-06-02, 02:05:00,VALID,915.029,VALID,0,VALID,99.2398,VALID,0.0509425,VALID,18.6854,VALID,205,VALID,0.508203,
2000-06-02, 02:06:00,VALID,915.029,VALID,0,VALID,99.2576,VALID,0.0679233,VALID,18.6886,VALID,209,VALID,0.16887,
2000-06-02, 02:07:00,VALID,914.999,VALID,0,VALID,99.2564,VALID,0.0339617,VALID,18.7018,VALID,193,VALID,0,
2000-06-02, 02:08:00,VALID,914.976,VALID,0,VALID,99.2538,VALID,0.0509425,VALID,18.6817,VALID,191,VALID,0,
2000-06-02, 02:09:00,VALID,914.954,VALID,0,VALID,99.2487,VALID,-0.0679233,VALID,18.6926,VALID,186,VALID,0.0890625,
2000-06-02, 02:10:00,VALID,914.934,VALID,0,VALID,99.2564,VALID,-0.0849042,VALID,18.6933,VALID,192,VALID,0.859375,
2000-06-02, 02:11:00,VALID,914.927,VALID,0,VALID,99.264,VALID,-0.0849042,VALID,18.6963,VALID,206,VALID,1.04646,
2000-06-02, 02:12:00,VALID,914.905,VALID,0,VALID,99.2653,VALID,-0.0849042,VALID,18.7025,VALID,207,VALID,0.822461,
2000-06-02, 02:13:00,VALID,914.9,VALID,0,VALID,99.2335,VALID,-0.0509425,VALID,18.7223,VALID,203,VALID,0.748438,
2000-06-02, 02:14:00,VALID,914.886,VALID,0,VALID,99.2004,VALID,-0.0679233,VALID,18.7025,VALID,185,VALID,0.859575,
2000-06-02, 02:15:00,VALID,914.881,VALID,0,VALID,99.1635,VALID,-0.0849042,VALID,18.7122,VALID,174,VALID,0.792352,
2000-06-02, 02:16:00,VALID,914.882,VALID,0,VALID,99.1101,VALID,-0.0849042,VALID,18.7059,VALID,174,VALID,0.830859,
2000-06-02, 02:17:00,VALID,914.897,VALID,0,VALID,99.0389,VALID,-0.0849042,VALID,18.6859,VALID,181,VALID,0.669531,
2000-06-02, 02:18:00,VALID,914.899,VALID,0,VALID,98.9982,VALID,-0.0679233,VALID,18.7059,VALID,175,VALID,0.403846,
2000-06-02, 02:19:00,VALID,914.918,VALID,0,VALID,98.9779,VALID,-0.0849042,VALID,18.7186,VALID,173,VALID,0,
2000-06-02, 02:20:00,VALID,914.928,VALID,0,VALID,98.9092,VALID,-0.0509425,VALID,18.7189,VALID,174,VALID,0,
2000-06-02, 02:21:00,VALID,914.93,VALID,0,VALID,98.8494,VALID,-0.0849042,VALID,18.7286,VALID,176,VALID,0,
2000-06-02, 02:22:00,VALID,914.935,VALID,0,VALID,98.8367,VALID,-0.0849042,VALID,18.7152,VALID,176,VALID,0,
2000-06-02, 02:23:00,VALID,914.939,VALID,0,VALID,98.8113,VALID,-0.101885,VALID,18.7286,VALID,176,VALID,0,
2000-06-02, 02:24:00,VALID,914.939,VALID,0,VALID,98.7782,VALID,-0.0339617,VALID,18.735,VALID,176,VALID,0,
2000-06-02, 02:25:00,VALID,914.93,VALID,0,VALID,98.7274,VALID,0,VALID,18.7477,VALID,176,VALID,0,
2000-06-02, 02:26:00,VALID,914.916,VALID,0,VALID,98.6409,VALID,0,VALID,18.7375,VALID,178,VALID,0,
2000-06-02, 02:27:00,VALID,914.902,VALID,0,VALID,98.5532,VALID,-0.0169808,VALID,18.7249,VALID,186,VALID,0,
2000-06-02, 02:28:00,VALID,914.881,VALID,0,VALID,98.4921,VALID,0,VALID,18.7278,VALID,186,VALID,0,
2000-06-02, 02:29:00,VALID,914.873,VALID,0,VALID,98.5137,VALID,0,VALID,18.7534,VALID,186,VALID,0,
2000-06-02, 02:30:00,VALID,914.858,VALID,0,VALID,98.4692,VALID,0,VALID,18.7537,VALID,185,VALID,0,
2000-06-02, 02:31:00,VALID,914.849,VALID,0,VALID,98.3662,VALID,0,VALID,18.7417,VALID,86,VALID,0,
2000-06-02, 02:32:00,VALID,914.845,VALID,0,VALID,98.3891,VALID,0,VALID,18.7472,VALID,76,VALID,0,
2000-06-02, 02:33:00,VALID,914.832,VALID,0,VALID,98.3383,VALID,0,VALID,18.7281,VALID,108,VALID,0.0537109,
2000-06-02, 02:34:00,VALID,914.817,VALID,0,VALID,98.3154,VALID,0.0169808,VALID,18.7249,VALID,119,VALID,0.714143,
2000-06-02, 02:35:00,VALID,914.806,VALID,0,VALID,98.281,VALID,0,VALID,18.7179,VALID,118,VALID,0.702508,
2000-06-02, 02:36:00,VALID,914.802,VALID,0,VALID,98.2264,VALID,-0.0169808,VALID,18.7085,VALID,118,VALID,0.506445,
2000-06-02, 02:37:00,VALID,914.804,VALID,0,VALID,98.2696,VALID,0,VALID,18.7052,VALID,104,VALID,0.106836,
2000-06-02, 02:38:00,VALID,914.811,VALID,0,VALID,98.2493,VALID,0,VALID,18.6958,VALID,351,VALID,0.36278,
2000-06-02, 02:39:00,VALID,914.815,VALID,0,VALID,98.2989,VALID,0,VALID,18.6926,VALID,314,VALID,0,
2000-06-02, 02:40:00,VALID,914.809,VALID,0,VALID,98.3751,VALID,0,VALID,18.7025,VALID,310,VALID,0,
2000-06-02, 02:41:00,VALID,914.807,VALID,0,VALID,98.4413,VALID,0,VALID,18.6893,VALID,310,VALID,0,
2000-06-02, 02:42:00,VALID,914.806,VALID,0,VALID,98.5036,VALID,-0.0339617,VALID,18.7025,VALID,308,VALID,0,
2000-06-02, 02:43:00,VALID,914.791,VALID,0,VALID,98.5176,VALID,0,VALID,18.7189,VALID,199,VALID,0,
2000-06-02, 02:44:00,VALID,914.789,VALID,0,VALID,98.4769,VALID,-0.0169808,VALID,18.6889,VALID,194,VALID,0,
2000-06-02, 02:45:00,VALID,914.8,VALID,0,VALID,98.4947,VALID,0,VALID,18.7025,VALID,193,VALID,0,
2000-06-02, 02:46:00,VALID,914.802,VALID,0,VALID,98.4807,VALID,-0.0169808,VALID,18.7027,VALID,193,VALID,0,
2000-06-02, 02:47:00,VALID,914.785,VALID,0,VALID,98.4209,VALID,0.0169808,VALID,18.6928,VALID,191,VALID,0,
2000-06-02, 02:48:00,VALID,914.759,VALID,0,VALID,98.3319,VALID,0,VALID,18.6568,VALID,191,VALID,0,
2000-06-02, 02:49:00,VALID,914.756,VALID,0,VALID,98.3052,VALID,-0.0339617,VALID,18.6411,VALID,191,VALID,0,
2000-06-02, 02:50:00,VALID,914.768,VALID,0,VALID,98.3484,VALID,-0.0169808,VALID,18.6344,VALID,192,VALID,0,
2000-06-02, 02:51:00,VALID,914.761,VALID,0,VALID,98.4082,VALID,0,VALID,18.6379,VALID,192,VALID,0,
2000-06-02, 02:52:00,VALID,914.742,VALID,0,VALID,98.4235,VALID,-0.0169808,VALID,18.6342,VALID,192,VALID,0,
2000-06-02, 02:53:00,VALID,914.729,VALID,0,VALID,98.4209,VALID,0,VALID,18.6376,VALID,192,VALID,0,
2000-06-02, 02:54:00,VALID,914.728,VALID,0,VALID,98.4196,VALID,0,VALID,18.6277,VALID,192,VALID,0,
2000-06-02, 02:55:00,VALID,914.715,VALID,0,VALID,98.398,VALID,0,VALID,18.6247,VALID,191,VALID,0,
2000-06-02, 02:56:00,VALID,914.697,VALID,0,VALID,98.4413,VALID,-0.0169808,VALID,18.6185,VALID,162,VALID,0,
2000-06-02, 02:57:00,VALID,914.701,VALID,0,VALID,98.4578,VALID,-0.0169808,VALID,18.6083,VALID,153,VALID,0,
2000-06-02, 02:58:00,VALID,914.698,VALID,0,VALID,98.4413,VALID,0,VALID,18.6086,VALID,153,VALID,0,
2000-06-02, 02:59:00,VALID,914.688,VALID,0,VALID,98.4553,VALID,-0.0339617,VALID,18.6063,VALID,153,VALID,0,
2000-06-02, 03:00:00,VALID,914.692,VALID,0,VALID,98.4909,VALID,-0.0169808,VALID,18.5927,VALID,153,VALID,0,
2000-06-02, 03:01:00,VALID,914.69,VALID,0,VALID,98.5277,VALID,0,VALID,18.6021,VALID,153,VALID,0,
2000-06-02, 03:02:00,VALID,914.667,VALID,0,VALID,98.5379,VALID,-0.0169808,VALID,18.5954,VALID,152,VALID,0,
2000-06-02, 03:03:00,VALID,914.665,VALID,0,VALID,98.5239,VALID,0,VALID,18.5825,VALID,157,VALID,0,
2000-06-02, 03:04:00,VALID,914.64,VALID,0,VALID,98.5506,VALID,0,VALID,18.5929,VALID,162,VALID,0,
2000-06-02, 03:05:00,VALID,914.627,VALID,0,VALID,98.5888,VALID,0,VALID,18.576,VALID,161,VALID,0,
2000-06-02, 03:06:00,VALID,914.615,VALID,0,VALID,98.6549,VALID,-0.0339617,VALID,18.5952,VALID,147,VALID,0,
2000-06-02, 03:07:00,VALID,914.598,VALID,0,VALID,98.6867,VALID,0,VALID,18.6215,VALID,109,VALID,0,
2000-06-02, 03:08:00,VALID,914.591,VALID,0,VALID,98.6511,VALID,-0.0339617,VALID,18.6086,VALID,106,VALID,0,
2000-06-02, 03:09:00,VALID,914.585,VALID,0,VALID,98.5824,VALID,-0.0339617,VALID,18.5959,VALID,112,VALID,0,
2000-06-02, 03:10:00,VALID,914.577,VALID,0,VALID,98.5544,VALID,-0.0169808,VALID,18.5899,VALID,114,VALID,0,
2000-06-02, 03:11:00,VALID,914.576,VALID,0,VALID,98.5888,VALID,-0.0339617,VALID,18.5892,VALID,75,VALID,0.020148,
2000-06-02, 03:12:00,VALID,914.554,VALID,0,VALID,98.6193,VALID,0,VALID,18.5922,VALID,70,VALID,0,
2000-06-02, 03:13:00,VALID,914.55,VALID,0,VALID,98.6435,VALID,0,VALID,18.5924,VALID,75,VALID,0,
2000-06-02, 03:14:00,VALID,914.528,VALID,0,VALID,98.632,VALID,0,VALID,18.586,VALID,68,VALID,0,
2000-06-02, 03:15:00,VALID,914.502,VALID,0,VALID,98.7096,VALID,0,VALID,18.6123,VALID,285,VALID,0,
2000-06-02, 03:16:00,VALID,914.464,VALID,0,VALID,98.7528,VALID,0,VALID,18.625,VALID,179,VALID,0,
2000-06-02, 03:17:00,VALID,914.452,VALID,0,VALID,98.7922,VALID,-0.0169808,VALID,18.6441,VALID,123,VALID,0.00078125,
2000-06-02, 03:18:00,VALID,914.436,VALID,0,VALID,98.777,VALID,0,VALID,18.657,VALID,118,VALID,0,
2000-06-02, 03:19:00,VALID,914.43,VALID,0,VALID,98.7159,VALID,-0.0169808,VALID,18.6314,VALID,119,VALID,0,
2000-06-02, 03:20:00,VALID,914.424,VALID,0,VALID,98.6574,VALID,0,VALID,18.6118,VALID,118,VALID,0,
2000-06-02, 03:21:00,VALID,914.425,VALID,0,VALID,98.5964,VALID,-0.0169808,VALID,18.5922,VALID,119,VALID,0,
2000-06-02, 03:22:00,VALID,914.425,VALID,0,VALID,98.5735,VALID,0,VALID,18.5827,VALID,119,VALID,0,
2000-06-02, 03:23:00,VALID,914.412,VALID,0,VALID,98.5608,VALID,0,VALID,18.5797,VALID,119,VALID,0,
2000-06-02, 03:24:00,VALID,914.411,VALID,0,VALID,98.5659,VALID,-0.0169808,VALID,18.57,VALID,118,VALID,0,
2000-06-02, 03:25:00,VALID,914.385,VALID,0,VALID,98.7134,VALID,0,VALID,18.6088,VALID,129,VALID,0,
2000-06-02, 03:26:00,VALID,914.378,VALID,0,VALID,98.749,VALID,-0.0339617,VALID,18.6215,VALID,127,VALID,0,
2000-06-02, 03:27:00,VALID,914.352,VALID,0,VALID,98.8227,VALID,0,VALID,18.6473,VALID,121,VALID,0.74116,
2000-06-02, 03:28:00,VALID,914.352,VALID,0,VALID,98.8431,VALID,-0.0169808,VALID,18.6933,VALID,131,VALID,0.599219,
2000-06-02, 03:29:00,VALID,914.347,VALID,0,VALID,98.8075,VALID,-0.0339617,VALID,18.7027,VALID,143,VALID,0.445508,
2000-06-02, 03:30:00,VALID,914.345,VALID,0,VALID,98.7541,VALID,-0.0339617,VALID,18.7032,VALID,151,VALID,0.392628,
2000-06-02, 03:31:00,VALID,914.357,VALID,0,VALID,98.7248,VALID,-0.0169808,VALID,18.693,VALID,159,VALID,0.351357,
2000-06-02, 03:32:00,VALID,914.358,VALID,0,VALID,98.6447,VALID,-0.0679233,VALID,18.6803,VALID,159,VALID,0.0244141,
2000-06-02, 03:33:00,VALID,914.351,VALID,0,VALID,98.5366,VALID,-0.0509425,VALID,18.6413,VALID,164,VALID,0,
2000-06-02, 03:34:00,VALID,914.35,VALID,0,VALID,98.4565,VALID,-0.0169808,VALID,18.6125,VALID,165,VALID,0,
2000-06-02, 03:35:00,VALID,914.347,VALID,0,VALID,98.3599,VALID,-0.0339617,VALID,18.5671,VALID,174,VALID,0,
2000-06-02, 03:36:00,VALID,914.353,VALID,0,VALID,98.3205,VALID,-0.0169808,VALID,18.5253,VALID,176,VALID,0,
2000-06-02, 03:37:00,VALID,914.345,VALID,0,VALID,98.3039,VALID,0,VALID,18.4831,VALID,176,VALID,0,
2000-06-02, 03:38:00,VALID,914.352,VALID,0,VALID,98.4069,VALID,0,VALID,18.4605,VALID,175,VALID,0.726763,
2000-06-02, 03:39:00,VALID,914.347,VALID,0,VALID,98.4451,VALID,-0.0169808,VALID,18.4245,VALID,165,VALID,0.74301,
2000-06-02, 03:40:00,VALID,914.349,VALID,0,VALID,98.4362,VALID,-0.0169808,VALID,18.4026,VALID,142,VALID,0.511328,
2000-06-02, 03:41:00,VALID,914.356,VALID,0,VALID,98.487,VALID,-0.0509425,VALID,18.3705,VALID,151,VALID,0.454492,